Wetterdaten: Freitag, 01.01.2016
Datum Zeit Auen-Temp. Temp gefhlt Luftfeuchte Luftdruck Regen Wind Richtung Richtung Taupunkt Windben
01.01.2016 00:00 2,7 C 3,0 C 94 % 1026,4 hPa 0,0 mm 0,0 km/h (0 Bft) S 180 1,8 C 0,0 km/h (0 Bft)
01.01.2016 00:05 2,7 C 3,0 C 94 % 1026,4 hPa 0,0 mm 0,0 km/h (0 Bft) W-SW 247 1,8 C 0,0 km/h (0 Bft)
01.01.2016 00:10 2,6 C 2,8 C 94 % 1026,4 hPa 0,0 mm 0,0 km/h (0 Bft) W-SW 247 1,7 C 0,0 km/h (0 Bft)
01.01.2016 00:15 2,6 C 2,7 C 94 % 1026,3 hPa 0,0 mm 0,0 km/h (0 Bft) W-SW 247 1,7 C 0,0 km/h (0 Bft)
01.01.2016 00:20 2,6 C 2,7 C 94 % 1026,3 hPa 0,0 mm 0,0 km/h (0 Bft) W-SW 247 1,7 C 0,0 km/h (0 Bft)
01.01.2016 00:25 2,6 C 2,7 C 94 % 1026,3 hPa 0,0 mm 0,0 km/h (0 Bft) W-SW 247 1,7 C 0,0 km/h (0 Bft)
01.01.2016 00:30 2,6 C 2,6 C 94 % 1026,3 hPa 0,0 mm 0,0 km/h (0 Bft) W-SW 247 1,7 C 0,0 km/h (0 Bft)
01.01.2016 00:35 2,6 C 2,6 C 94 % 1026,2 hPa 0,0 mm 0,0 km/h (0 Bft) S 180 1,7 C 0,0 km/h (0 Bft)
01.01.2016 00:40 2,6 C 2,6 C 94 % 1026,2 hPa 0,0 mm 0,0 km/h (0 Bft) O-NO 67 1,7 C 0,0 km/h (0 Bft)
01.01.2016 00:45 2,6 C 2,6 C 95 % 1026,2 hPa 0,0 mm 0,0 km/h (0 Bft) O-NO 67 1,9 C 0,0 km/h (0 Bft)
01.01.2016 00:50 2,7 C 2,6 C 95 % 1026,2 hPa 0,0 mm 0,0 km/h (0 Bft) O-NO 67 2,0 C 0,0 km/h (0 Bft)
01.01.2016 00:55 2,7 C 2,7 C 95 % 1026,2 hPa 0,0 mm 0,0 km/h (0 Bft) O-NO 67 2,0 C 0,0 km/h (0 Bft)
01.01.2016 01:00 2,7 C 2,7 C 95 % 1026,2 hPa 0,0 mm 0,0 km/h (0 Bft) O-NO 67 2,0 C 0,0 km/h (0 Bft)
01.01.2016 01:02 2,7 C 2,7 C 95 % 1026,2 hPa 0,0 mm 0,0 km/h (0 Bft) O-NO 67 2,0 C 0,0 km/h (0 Bft)
01.01.2016 01:05 2,6 C 2,8 C 95 % 1026,2 hPa 0,0 mm 0,0 km/h (0 Bft) O-NO 67 1,9 C 0,0 km/h (0 Bft)
01.01.2016 01:10 2,6 C 2,7 C 95 % 1026,2 hPa 0,0 mm 0,0 km/h (0 Bft) O-NO 67 1,9 C 0,0 km/h (0 Bft)
01.01.2016 01:15 2,6 C 2,7 C 95 % 1026,2 hPa 0,0 mm 0,0 km/h (0 Bft) O-NO 67 1,9 C 0,0 km/h (0 Bft)
01.01.2016 01:20 2,7 C 2,8 C 95 % 1026,2 hPa 0,0 mm 0,0 km/h (0 Bft) S-SO 157 2,0 C 0,0 km/h (0 Bft)
01.01.2016 01:25 2,7 C 2,8 C 95 % 1026,2 hPa 0,0 mm 0,0 km/h (0 Bft) S-SO 157 2,0 C 0,0 km/h (0 Bft)
01.01.2016 01:30 2,6 C 2,8 C 95 % 1026,2 hPa 0,0 mm 0,0 km/h (0 Bft) S-SO 157 1,9 C 0,0 km/h (0 Bft)
01.01.2016 01:35 2,7 C 2,8 C 95 % 1026,2 hPa 0,0 mm 0,0 km/h (0 Bft) S-SO 157 2,0 C 0,0 km/h (0 Bft)
01.01.2016 01:40 2,6 C 2,8 C 95 % 1026,2 hPa 0,0 mm 0,0 km/h (0 Bft) S-SO 157 1,9 C 0,0 km/h (0 Bft)
01.01.2016 01:45 2,7 C 2,8 C 95 % 1026,2 hPa 0,0 mm 0,0 km/h (0 Bft) S-SO 157 2,0 C 0,0 km/h (0 Bft)
01.01.2016 01:50 2,7 C 2,8 C 95 % 1026,2 hPa 0,0 mm 0,0 km/h (0 Bft) S-SO 157 2,0 C 0,0 km/h (0 Bft)
01.01.2016 01:55 2,7 C 2,7 C 95 % 1026,0 hPa 0,0 mm 0,0 km/h (0 Bft) S-SO 157 2,0 C 0,0 km/h (0 Bft)
01.01.2016 02:00 2,8 C 2,9 C 89 % 1026,0 hPa 0,7 mm 0,0 km/h (0 Bft) S 180 1,2 C 0,0 km/h (0 Bft)
01.01.2016 02:05 2,7 C 2,8 C 95 % 1026,0 hPa 0,0 mm 0,0 km/h (0 Bft) W-SW 247 2,0 C 0,0 km/h (0 Bft)
01.01.2016 02:10 2,7 C 2,8 C 95 % 1026,0 hPa 0,0 mm 0,0 km/h (0 Bft) S 180 2,0 C 0,0 km/h (0 Bft)
01.01.2016 02:15 2,7 C 2,7 C 95 % 1026,2 hPa 0,0 mm 0,0 km/h (0 Bft) S 180 2,0 C 0,0 km/h (0 Bft)
01.01.2016 02:20 2,7 C 2,7 C 95 % 1026,2 hPa 0,7 mm 0,0 km/h (0 Bft) S 180 2,0 C 0,0 km/h (0 Bft)
01.01.2016 02:25 2,8 C 2,8 C 95 % 1026,2 hPa 0,0 mm 0,0 km/h (0 Bft) S 180 2,1 C 0,0 km/h (0 Bft)
01.01.2016 02:30 2,8 C 2,9 C 89 % 1026,2 hPa 0,0 mm 0,0 km/h (0 Bft) S-SW 202 1,2 C 0,0 km/h (0 Bft)
01.01.2016 02:35 3,2 C 3,2 C 88 % 1026,2 hPa 0,0 mm 0,3 km/h (0 Bft) SW 225 1,4 C 0,0 km/h (0 Bft)
01.01.2016 02:40 3,0 C 3,1 C 94 % 1026,2 hPa 0,0 mm 0,3 km/h (0 Bft) W 270 2,1 C 0,0 km/h (0 Bft)
01.01.2016 02:45 2,8 C 3,0 C 95 % 1026,2 hPa 0,0 mm 0,0 km/h (0 Bft) W 270 2,1 C 0,0 km/h (0 Bft)
01.01.2016 02:50 2,8 C 3,0 C 95 % 1026,2 hPa 0,0 mm 0,0 km/h (0 Bft) W 270 2,1 C 0,0 km/h (0 Bft)
01.01.2016 02:55 2,7 C 2,9 C 95 % 1026,2 hPa 0,0 mm 0,0 km/h (0 Bft) W 270 2,0 C 0,0 km/h (0 Bft)
01.01.2016 03:00 2,7 C 2,8 C 95 % 1026,2 hPa 0,0 mm 0,0 km/h (0 Bft) W-SW 247 2,0 C 0,0 km/h (0 Bft)
01.01.2016 03:05 2,7 C 2,8 C 95 % 1026,2 hPa 0,7 mm 0,0 km/h (0 Bft) S-SO 157 2,0 C 0,0 km/h (0 Bft)
01.01.2016 03:10 2,7 C 2,7 C 95 % 1026,2 hPa 0,0 mm 0,0 km/h (0 Bft) SW 225 2,0 C 0,0 km/h (0 Bft)
01.01.2016 03:15 2,8 C 3,0 C 89 % 1026,3 hPa 0,0 mm 0,8 km/h (0 Bft) SW 225 1,2 C 4,9 km/h (1 Bft)
01.01.2016 03:20 3,6 C 3,5 C 95 % 1026,3 hPa 0,0 mm 2,8 km/h (1 Bft) SW 225 2,9 C 6,7 km/h (2 Bft)
01.01.2016 03:25 3,3 C 3,4 C 95 % 1026,3 hPa 0,0 mm 3,1 km/h (1 Bft) S-SW 202 2,6 C 7,0 km/h (2 Bft)
01.01.2016 03:30 3,7 C 3,7 C 95 % 1026,3 hPa 0,0 mm 3,9 km/h (1 Bft) W-SW 247 3,0 C 7,8 km/h (2 Bft)
01.01.2016 03:35 3,7 C 3,7 C 95 % 1026,7 hPa 0,0 mm 4,4 km/h (1 Bft) W-SW 247 3,0 C 3,6 km/h (1 Bft)
01.01.2016 03:40 3,8 C 3,8 C 95 % 1026,7 hPa 0,7 mm 3,9 km/h (1 Bft) SW 225 3,1 C 3,4 km/h (1 Bft)
01.01.2016 03:45 3,8 C 3,8 C 95 % 1026,7 hPa 0,0 mm 4,4 km/h (1 Bft) W-SW 247 3,1 C 6,2 km/h (2 Bft)
01.01.2016 03:50 3,8 C 3,7 C 95 % 1026,7 hPa 0,0 mm 4,9 km/h (1 Bft) W-SW 247 3,1 C 9,6 km/h (2 Bft)
01.01.2016 03:55 3,7 C 3,6 C 95 % 1026,6 hPa 0,0 mm 5,4 km/h (1 Bft) NW 315 3,0 C 10,6 km/h (2 Bft)
01.01.2016 03:59 3,6 C 3,3 C 95 % 1026,6 hPa 0,0 mm 6,5 km/h (2 Bft) S 180 2,9 C 8,8 km/h (2 Bft)
01.01.2016 04:05 3,6 C 3,4 C 95 % 1026,6 hPa 0,0 mm 6,2 km/h (2 Bft) S 180 2,9 C 4,7 km/h (1 Bft)
01.01.2016 04:10 3,6 C 3,5 C 95 % 1026,6 hPa 0,0 mm 4,9 km/h (1 Bft) SW 225 2,9 C 3,4 km/h (1 Bft)
01.01.2016 04:15 3,6 C 3,5 C 95 % 1026,6 hPa 0,0 mm 4,1 km/h (1 Bft) SW 225 2,9 C 6,7 km/h (2 Bft)
01.01.2016 04:20 3,6 C 3,5 C 95 % 1026,6 hPa 0,7 mm 4,4 km/h (1 Bft) W-SW 247 2,9 C 3,6 km/h (1 Bft)
01.01.2016 04:25 3,6 C 3,4 C 95 % 1026,6 hPa 0,0 mm 5,4 km/h (1 Bft) SW 225 2,9 C 11,1 km/h (2 Bft)
01.01.2016 04:30 3,6 C 3,3 C 95 % 1026,6 hPa 0,0 mm 6,2 km/h (2 Bft) W-SW 247 2,9 C 11,9 km/h (2 Bft)
01.01.2016 04:35 3,6 C 3,4 C 95 % 1026,5 hPa 0,0 mm 6,0 km/h (2 Bft) S-SW 202 2,9 C 4,9 km/h (1 Bft)
01.01.2016 04:40 3,6 C 3,5 C 95 % 1026,5 hPa 0,0 mm 4,1 km/h (1 Bft) W-SW 247 2,9 C 4,1 km/h (1 Bft)
01.01.2016 04:45 3,6 C 3,5 C 95 % 1026,5 hPa 0,0 mm 3,4 km/h (1 Bft) SW 225 2,9 C 7,0 km/h (2 Bft)
01.01.2016 04:50 3,6 C 3,5 C 95 % 1026,5 hPa 0,7 mm 3,4 km/h (1 Bft) W 270 2,9 C 2,6 km/h (1 Bft)
01.01.2016 04:55 3,6 C 3,5 C 95 % 1026,5 hPa 0,0 mm 3,4 km/h (1 Bft) W-SW 247 2,9 C 6,2 km/h (2 Bft)
01.01.2016 05:00 3,6 C 3,5 C 95 % 1026,5 hPa 0,0 mm 4,1 km/h (1 Bft) W 270 2,9 C 13,5 km/h (3 Bft)
01.01.2016 05:05 3,6 C 3,5 C 95 % 1026,5 hPa 0,0 mm 4,4 km/h (1 Bft) W-SW 247 2,9 C 8,5 km/h (2 Bft)
01.01.2016 05:10 3,5 C 3,5 C 95 % 1026,5 hPa 0,0 mm 1,8 km/h (1 Bft) W-SW 247 2,8 C 3,1 km/h (1 Bft)
01.01.2016 05:15 3,5 C 3,5 C 95 % 1026,5 hPa 0,0 mm 1,8 km/h (1 Bft) W-NW 292 2,8 C 2,8 km/h (1 Bft)
01.01.2016 05:20 3,5 C 3,4 C 95 % 1026,5 hPa 0,7 mm 2,6 km/h (1 Bft) W 270 2,8 C 7,0 km/h (2 Bft)
01.01.2016 05:25 3,6 C 3,5 C 95 % 1026,5 hPa 0,0 mm 3,1 km/h (1 Bft) W-SW 247 2,9 C 4,9 km/h (1 Bft)
01.01.2016 05:30 3,6 C 3,4 C 95 % 1026,5 hPa 0,0 mm 5,2 km/h (1 Bft) S-SW 202 2,9 C 8,5 km/h (2 Bft)
01.01.2016 05:35 3,6 C 3,5 C 95 % 1026,4 hPa 0,0 mm 5,4 km/h (1 Bft) W 270 2,9 C 5,2 km/h (1 Bft)
01.01.2016 05:40 3,6 C 3,6 C 95 % 1026,4 hPa 0,0 mm 4,4 km/h (1 Bft) SW 225 2,9 C 7,3 km/h (2 Bft)
01.01.2016 05:45 3,7 C 3,6 C 95 % 1026,4 hPa 0,0 mm 4,4 km/h (1 Bft) SW 225 3,0 C 7,0 km/h (2 Bft)
01.01.2016 05:50 3,7 C 3,5 C 95 % 1026,4 hPa 0,0 mm 5,2 km/h (1 Bft) W-SW 247 3,0 C 6,2 km/h (2 Bft)
01.01.2016 05:55 3,7 C 3,7 C 95 % 1026,7 hPa 0,0 mm 4,4 km/h (1 Bft) SW 225 3,0 C 3,4 km/h (1 Bft)
01.01.2016 06:00 3,6 C 3,6 C 95 % 1026,7 hPa 0,0 mm 2,1 km/h (1 Bft) O-SO 112 2,9 C 0,0 km/h (0 Bft)
01.01.2016 06:05 3,6 C 3,6 C 95 % 1026,7 hPa 0,0 mm 1,3 km/h (1 Bft) W-SW 247 2,9 C 0,0 km/h (0 Bft)
01.01.2016 06:10 3,6 C 3,6 C 95 % 1026,7 hPa 0,0 mm 0,0 km/h (0 Bft) W-SW 247 2,9 C 0,0 km/h (0 Bft)
01.01.2016 06:15 3,6 C 3,6 C 95 % 1027,1 hPa 0,0 mm 0,3 km/h (0 Bft) W-SW 247 2,9 C 3,4 km/h (1 Bft)
01.01.2016 06:20 3,7 C 3,7 C 95 % 1027,1 hPa 0,0 mm 2,1 km/h (1 Bft) SW 225 3,0 C 9,3 km/h (2 Bft)
01.01.2016 06:25 3,8 C 3,7 C 95 % 1027,1 hPa 0,0 mm 4,4 km/h (1 Bft) S 180 3,1 C 6,7 km/h (2 Bft)
01.01.2016 06:30 3,8 C 3,6 C 95 % 1027,1 hPa 0,0 mm 6,2 km/h (2 Bft) SW 225 3,1 C 7,0 km/h (2 Bft)
01.01.2016 06:35 3,8 C 3,7 C 95 % 1027,3 hPa 0,0 mm 5,4 km/h (1 Bft) S 180 3,1 C 6,0 km/h (2 Bft)
01.01.2016 06:40 3,8 C 3,8 C 95 % 1027,3 hPa 0,0 mm 3,6 km/h (1 Bft) W-NW 292 3,1 C 4,7 km/h (1 Bft)
01.01.2016 06:45 3,7 C 3,7 C 95 % 1027,3 hPa 0,0 mm 1,8 km/h (1 Bft) W-SW 247 3,0 C 2,6 km/h (1 Bft)
01.01.2016 06:50 3,8 C 3,8 C 95 % 1027,3 hPa 0,0 mm 1,3 km/h (1 Bft) SW 225 3,1 C 5,4 km/h (1 Bft)
01.01.2016 06:55 3,8 C 3,8 C 96 % 1027,2 hPa 0,0 mm 2,3 km/h (1 Bft) W-SW 247 3,2 C 5,2 km/h (1 Bft)
01.01.2016 07:00 3,8 C 3,8 C 96 % 1027,2 hPa 0,0 mm 3,1 km/h (1 Bft) W-SW 247 3,2 C 0,0 km/h (0 Bft)
01.01.2016 07:05 3,8 C 3,8 C 96 % 1027,2 hPa 0,0 mm 2,6 km/h (1 Bft) W 270 3,2 C 3,9 km/h (1 Bft)
01.01.2016 07:10 3,8 C 3,8 C 96 % 1027,2 hPa 0,0 mm 1,0 km/h (0 Bft) W 270 3,2 C 0,0 km/h (0 Bft)
01.01.2016 07:15 3,7 C 3,7 C 95 % 1027,3 hPa 0,0 mm 0,3 km/h (0 Bft) W 270 3,0 C 0,0 km/h (0 Bft)
01.01.2016 07:20 3,6 C 3,6 C 95 % 1027,3 hPa 0,0 mm 0,0 km/h (0 Bft) W-SW 247 2,9 C 0,0 km/h (0 Bft)
01.01.2016 07:25 3,7 C 3,7 C 95 % 1027,3 hPa 0,0 mm 0,0 km/h (0 Bft) W-SW 247 3,0 C 0,0 km/h (0 Bft)
01.01.2016 07:30 3,6 C 3,6 C 95 % 1027,3 hPa 0,0 mm 0,5 km/h (0 Bft) W-NW 292 2,9 C 4,1 km/h (1 Bft)
01.01.2016 07:35 3,6 C 3,6 C 95 % 1027,3 hPa 0,0 mm 0,8 km/h (0 Bft) W-SW 247 2,9 C 2,6 km/h (1 Bft)
01.01.2016 07:40 3,6 C 3,6 C 95 % 1027,3 hPa 0,0 mm 0,5 km/h (0 Bft) W 270 2,9 C 0,0 km/h (0 Bft)
01.01.2016 07:45 3,5 C 3,5 C 95 % 1027,3 hPa 0,0 mm 0,5 km/h (0 Bft) NW 315 2,8 C 3,1 km/h (1 Bft)
01.01.2016 07:50 3,5 C 3,5 C 95 % 1027,3 hPa 0,0 mm 1,3 km/h (1 Bft) W-NW 292 2,8 C 0,0 km/h (0 Bft)
01.01.2016 07:55 3,5 C 3,5 C 95 % 1027,2 hPa 0,0 mm 1,0 km/h (0 Bft) NW 315 2,8 C 0,0 km/h (0 Bft)
01.01.2016 08:00 3,5 C 3,5 C 95 % 1027,2 hPa 0,0 mm 0,0 km/h (0 Bft) W-NW 292 2,8 C 0,0 km/h (0 Bft)
01.01.2016 08:05 3,5 C 3,5 C 95 % 1027,2 hPa 0,0 mm 0,0 km/h (0 Bft) W 270 2,8 C 0,0 km/h (0 Bft)
01.01.2016 08:10 3,5 C 3,5 C 95 % 1027,2 hPa 0,0 mm 0,5 km/h (0 Bft) W-SW 247 2,8 C 2,8 km/h (1 Bft)
01.01.2016 08:15 3,5 C 3,5 C 95 % 1027,2 hPa 0,0 mm 0,5 km/h (0 Bft) W-SW 247 2,8 C 0,0 km/h (0 Bft)
01.01.2016 08:20 3,5 C 3,5 C 95 % 1027,2 hPa 0,0 mm 0,3 km/h (0 Bft) W 270 2,8 C 6,2 km/h (2 Bft)
01.01.2016 08:25 3,6 C 3,5 C 95 % 1027,2 hPa 0,0 mm 1,8 km/h (1 Bft) W-SW 247 2,9 C 0,0 km/h (0 Bft)
01.01.2016 08:30 3,6 C 3,5 C 95 % 1027,2 hPa 0,0 mm 2,1 km/h (1 Bft) W 270 2,9 C 0,0 km/h (0 Bft)
01.01.2016 08:35 3,5 C 3,5 C 95 % 1027,2 hPa 0,0 mm 0,5 km/h (0 Bft) W 270 2,8 C 0,0 km/h (0 Bft)
01.01.2016 08:40 3,6 C 3,5 C 95 % 1027,2 hPa 0,0 mm 0,0 km/h (0 Bft) S 180 2,9 C 0,0 km/h (0 Bft)
01.01.2016 08:45 3,6 C 3,6 C 95 % 1027,2 hPa 0,0 mm 0,3 km/h (0 Bft) S-SW 202 2,9 C 0,0 km/h (0 Bft)
01.01.2016 08:50 3,6 C 3,6 C 96 % 1027,2 hPa 0,7 mm 1,0 km/h (0 Bft) W-SW 247 3,0 C 3,6 km/h (1 Bft)
01.01.2016 08:55 3,6 C 3,6 C 95 % 1027,2 hPa 0,0 mm 1,6 km/h (1 Bft) W-SW 247 2,9 C 0,0 km/h (0 Bft)
01.01.2016 09:00 3,6 C 3,6 C 95 % 1027,2 hPa 0,0 mm 1,0 km/h (0 Bft) W-SW 247 2,9 C 4,7 km/h (1 Bft)
01.01.2016 09:05 3,7 C 3,7 C 95 % 1027,2 hPa 0,0 mm 1,0 km/h (0 Bft) W-SW 247 3,0 C 4,9 km/h (1 Bft)
01.01.2016 09:10 3,7 C 3,7 C 95 % 1027,2 hPa 0,0 mm 3,6 km/h (1 Bft) W-SW 247 3,0 C 6,0 km/h (2 Bft)
01.01.2016 09:15 3,7 C 3,7 C 95 % 1027,3 hPa 0,0 mm 4,1 km/h (1 Bft) W-SW 247 3,0 C 4,4 km/h (1 Bft)
01.01.2016 09:20 3,7 C 3,7 C 96 % 1027,3 hPa 0,0 mm 2,8 km/h (1 Bft) NW 315 3,1 C 0,0 km/h (0 Bft)
01.01.2016 09:25 3,8 C 3,8 C 96 % 1027,3 hPa 0,0 mm 2,3 km/h (1 Bft) W-NW 292 3,2 C 0,0 km/h (0 Bft)
01.01.2016 09:30 3,8 C 3,8 C 96 % 1027,3 hPa 0,0 mm 2,3 km/h (1 Bft) W-SW 247 3,2 C 0,0 km/h (0 Bft)
01.01.2016 09:35 3,8 C 3,9 C 96 % 1027,7 hPa 0,0 mm 1,6 km/h (1 Bft) W-SW 247 3,2 C 2,8 km/h (1 Bft)
01.01.2016 09:40 3,9 C 3,9 C 96 % 1027,7 hPa 0,0 mm 1,8 km/h (1 Bft) W 270 3,3 C 3,6 km/h (1 Bft)
01.01.2016 09:45 3,9 C 4,0 C 96 % 1027,7 hPa 0,0 mm 2,6 km/h (1 Bft) SW 225 3,3 C 3,1 km/h (1 Bft)
01.01.2016 09:50 4,1 C 4,1 C 95 % 1027,7 hPa 0,0 mm 3,1 km/h (1 Bft) SW 225 3,4 C 5,2 km/h (1 Bft)
01.01.2016 09:55 4,1 C 4,1 C 95 % 1027,2 hPa 0,0 mm 3,4 km/h (1 Bft) W-SW 247 3,4 C 3,6 km/h (1 Bft)
01.01.2016 10:00 4,2 C 4,3 C 95 % 1027,2 hPa 0,0 mm 2,6 km/h (1 Bft) W 270 3,5 C 6,2 km/h (2 Bft)
01.01.2016 10:05 4,1 C 4,2 C 95 % 1027,2 hPa 0,0 mm 2,3 km/h (1 Bft) W 270 3,4 C 2,8 km/h (1 Bft)
01.01.2016 10:10 4,1 C 4,1 C 95 % 1027,2 hPa 0,0 mm 1,8 km/h (1 Bft) S 180 3,4 C 5,4 km/h (1 Bft)
01.01.2016 10:15 4,0 C 4,1 C 95 % 1027,3 hPa 0,0 mm 1,0 km/h (0 Bft) NW 315 3,3 C 0,0 km/h (0 Bft)
01.01.2016 10:20 4,0 C 4,0 C 95 % 1027,3 hPa 0,0 mm 1,8 km/h (1 Bft) W-SW 247 3,3 C 4,1 km/h (1 Bft)
01.01.2016 10:25 4,0 C 4,0 C 95 % 1027,3 hPa 0,0 mm 2,3 km/h (1 Bft) SW 225 3,3 C 0,0 km/h (0 Bft)
01.01.2016 10:30 4,1 C 4,1 C 95 % 1027,3 hPa 0,0 mm 2,6 km/h (1 Bft) W 270 3,4 C 3,9 km/h (1 Bft)
01.01.2016 10:35 4,1 C 4,1 C 95 % 1027,4 hPa 0,0 mm 2,3 km/h (1 Bft) NW 315 3,4 C 0,0 km/h (0 Bft)
01.01.2016 10:40 4,1 C 4,1 C 95 % 1027,4 hPa 0,0 mm 1,0 km/h (0 Bft) W-SW 247 3,4 C 0,0 km/h (0 Bft)
01.01.2016 10:45 4,1 C 4,2 C 88 % 1027,4 hPa 0,0 mm 0,3 km/h (0 Bft) W 270 2,3 C 0,0 km/h (0 Bft)
01.01.2016 10:50 4,2 C 4,5 C 88 % 1027,4 hPa 0,0 mm 0,3 km/h (0 Bft) W 270 2,4 C 0,0 km/h (0 Bft)
01.01.2016 10:55 4,4 C 4,7 C 88 % 1027,5 hPa 0,0 mm 0,0 km/h (0 Bft) W-NW 292 2,6 C 0,0 km/h (0 Bft)
01.01.2016 11:00 4,6 C 5,0 C 88 % 1027,5 hPa 0,0 mm 2,3 km/h (1 Bft) W-NW 292 2,8 C 9,6 km/h (2 Bft)
01.01.2016 11:05 4,6 C 5,0 C 88 % 1027,5 hPa 0,0 mm 4,7 km/h (1 Bft) W-NW 292 2,8 C 9,1 km/h (2 Bft)
01.01.2016 11:10 4,6 C 4,5 C 95 % 1027,5 hPa 0,0 mm 6,0 km/h (2 Bft) NW 315 3,9 C 0,0 km/h (0 Bft)
01.01.2016 11:15 4,6 C 4,8 C 87 % 1027,1 hPa 0,0 mm 3,9 km/h (1 Bft) N 360 2,6 C 4,9 km/h (1 Bft)
01.01.2016 11:20 4,7 C 5,0 C 87 % 1027,1 hPa 0,0 mm 2,6 km/h (1 Bft) NW 315 2,7 C 3,6 km/h (1 Bft)
01.01.2016 11:25 4,7 C 4,9 C 87 % 1027,1 hPa 0,0 mm 4,9 km/h (1 Bft) W-SW 247 2,7 C 8,5 km/h (2 Bft)
01.01.2016 11:30 4,7 C 4,9 C 87 % 1027,1 hPa 0,0 mm 5,7 km/h (1 Bft) N-NW 337 2,7 C 4,9 km/h (1 Bft)
01.01.2016 11:35 4,7 C 5,0 C 87 % 1027,0 hPa 0,0 mm 5,4 km/h (1 Bft) W-NW 292 2,7 C 9,1 km/h (2 Bft)
01.01.2016 11:40 4,7 C 5,0 C 87 % 1027,0 hPa 0,0 mm 4,9 km/h (1 Bft) N-NW 337 2,7 C 5,2 km/h (1 Bft)
01.01.2016 11:45 4,7 C 4,8 C 87 % 1027,0 hPa 0,0 mm 6,0 km/h (2 Bft) NW 315 2,7 C 8,0 km/h (2 Bft)
01.01.2016 11:50 4,7 C 4,6 C 87 % 1027,0 hPa 0,0 mm 6,5 km/h (2 Bft) W 270 2,7 C 9,1 km/h (2 Bft)
01.01.2016 11:55 4,7 C 4,7 C 87 % 1027,2 hPa 0,0 mm 5,7 km/h (1 Bft) N-NW 337 2,7 C 6,2 km/h (2 Bft)
01.01.2016 12:00 4,7 C 4,8 C 86 % 1027,2 hPa 0,0 mm 4,4 km/h (1 Bft) NW 315 2,6 C 3,4 km/h (1 Bft)
01.01.2016 12:05 4,7 C 4,8 C 86 % 1027,2 hPa 0,0 mm 2,8 km/h (1 Bft) W-NW 292 2,6 C 3,6 km/h (1 Bft)
01.01.2016 12:10 4,8 C 5,0 C 86 % 1027,2 hPa 0,0 mm 1,6 km/h (1 Bft) NW 315 2,7 C 3,9 km/h (1 Bft)
01.01.2016 12:15 4,8 C 5,0 C 86 % 1026,7 hPa 0,0 mm 2,6 km/h (1 Bft) NW 315 2,7 C 6,5 km/h (2 Bft)
01.01.2016 12:20 4,8 C 5,2 C 86 % 1026,7 hPa 0,0 mm 4,1 km/h (1 Bft) NW 315 2,7 C 8,3 km/h (2 Bft)
01.01.2016 12:25 4,8 C 5,5 C 86 % 1026,7 hPa 0,0 mm 4,4 km/h (1 Bft) NW 315 2,7 C 4,9 km/h (1 Bft)
01.01.2016 12:30 4,8 C 5,6 C 86 % 1026,7 hPa 0,0 mm 4,7 km/h (1 Bft) O-NO 67 2,7 C 0,0 km/h (0 Bft)
01.01.2016 12:35 4,8 C 5,8 C 86 % 1026,5 hPa 0,0 mm 3,6 km/h (1 Bft) N 360 2,7 C 0,0 km/h (0 Bft)
01.01.2016 12:40 4,8 C 6,0 C 85 % 1026,5 hPa 0,0 mm 2,8 km/h (1 Bft) NW 315 2,5 C 3,9 km/h (1 Bft)
01.01.2016 12:45 4,8 C 6,1 C 85 % 1026,5 hPa 0,0 mm 2,1 km/h (1 Bft) W-NW 292 2,5 C 0,0 km/h (0 Bft)
01.01.2016 12:50 4,8 C 6,3 C 85 % 1026,5 hPa 0,0 mm 1,6 km/h (1 Bft) N-NO 22 2,5 C 4,4 km/h (1 Bft)
01.01.2016 12:55 4,7 C 6,1 C 85 % 1026,0 hPa 0,0 mm 1,3 km/h (1 Bft) NO 45 2,4 C 0,0 km/h (0 Bft)
01.01.2016 13:00 4,8 C 6,2 C 85 % 1026,0 hPa 0,0 mm 0,5 km/h (0 Bft) NO 45 2,5 C 0,0 km/h (0 Bft)
01.01.2016 13:05 4,9 C 6,4 C 85 % 1026,0 hPa 0,0 mm 0,8 km/h (0 Bft) NO 45 2,6 C 4,1 km/h (1 Bft)
01.01.2016 13:10 4,8 C 6,4 C 84 % 1026,0 hPa 0,0 mm 2,3 km/h (1 Bft) O-NO 67 2,3 C 3,9 km/h (1 Bft)
01.01.2016 13:15 4,8 C 6,4 C 84 % 1025,8 hPa 0,0 mm 3,1 km/h (1 Bft) O-NO 67 2,3 C 6,2 km/h (2 Bft)
01.01.2016 13:20 4,8 C 6,2 C 83 % 1025,8 hPa 0,0 mm 2,6 km/h (1 Bft) O-NO 67 2,2 C 3,6 km/h (1 Bft)
01.01.2016 13:25 4,7 C 6,1 C 83 % 1025,8 hPa 0,0 mm 3,4 km/h (1 Bft) O-NO 67 2,1 C 5,2 km/h (1 Bft)
01.01.2016 13:30 4,8 C 6,2 C 83 % 1025,8 hPa 0,0 mm 3,4 km/h (1 Bft) O-NO 67 2,2 C 4,4 km/h (1 Bft)
01.01.2016 13:35 4,9 C 6,4 C 83 % 1025,7 hPa 0,0 mm 2,6 km/h (1 Bft) N-NO 22 2,3 C 3,6 km/h (1 Bft)
01.01.2016 13:40 5,0 C 6,4 C 82 % 1025,7 hPa 0,0 mm 2,3 km/h (1 Bft) O-SO 112 2,2 C 0,0 km/h (0 Bft)
01.01.2016 13:45 5,0 C 6,5 C 82 % 1025,7 hPa 0,0 mm 1,6 km/h (1 Bft) NO 45 2,2 C 0,0 km/h (0 Bft)
01.01.2016 13:50 4,9 C 6,5 C 82 % 1025,7 hPa 0,0 mm 0,5 km/h (0 Bft) NO 45 2,1 C 0,0 km/h (0 Bft)
01.01.2016 13:55 4,9 C 6,4 C 82 % 1025,6 hPa 0,0 mm 0,8 km/h (0 Bft) NO 45 2,1 C 0,0 km/h (0 Bft)
01.01.2016 14:00 4,9 C 6,3 C 81 % 1025,6 hPa 0,0 mm 1,8 km/h (1 Bft) NO 45 1,9 C 0,0 km/h (0 Bft)
01.01.2016 14:05 4,8 C 6,1 C 81 % 1025,6 hPa 0,0 mm 2,1 km/h (1 Bft) N-NO 22 1,8 C 3,6 km/h (1 Bft)
01.01.2016 14:10 4,8 C 6,1 C 81 % 1025,6 hPa 0,0 mm 1,0 km/h (0 Bft) O 90 1,8 C 0,0 km/h (0 Bft)
01.01.2016 14:15 4,8 C 6,0 C 81 % 1025,5 hPa 0,0 mm 0,5 km/h (0 Bft) NO 45 1,8 C 0,0 km/h (0 Bft)
01.01.2016 14:20 4,8 C 5,9 C 86 % 1025,5 hPa 0,0 mm 0,0 km/h (0 Bft) O-SO 112 2,7 C 0,0 km/h (0 Bft)
01.01.2016 14:25 4,7 C 5,9 C 87 % 1025,5 hPa 0,0 mm 0,0 km/h (0 Bft) O-NO 67 2,7 C 0,0 km/h (0 Bft)
01.01.2016 14:30 4,7 C 5,8 C 81 % 1025,5 hPa 0,0 mm 0,0 km/h (0 Bft) O-SO 112 1,7 C 0,0 km/h (0 Bft)
01.01.2016 14:35 4,7 C 5,8 C 81 % 1025,5 hPa 0,0 mm 0,0 km/h (0 Bft) O-SO 112 1,7 C 0,0 km/h (0 Bft)
01.01.2016 14:40 4,8 C 5,9 C 82 % 1025,5 hPa 0,0 mm 0,3 km/h (0 Bft) O-SO 112 2,0 C 2,6 km/h (1 Bft)
01.01.2016 14:45 4,8 C 5,9 C 87 % 1025,5 hPa 0,0 mm 0,3 km/h (0 Bft) NO 45 2,8 C 2,8 km/h (1 Bft)
01.01.2016 14:50 4,7 C 5,7 C 81 % 1025,5 hPa 0,0 mm 2,3 km/h (1 Bft) O-NO 67 1,7 C 3,6 km/h (1 Bft)
01.01.2016 14:55 4,7 C 5,6 C 86 % 1025,5 hPa 0,0 mm 3,6 km/h (1 Bft) NO 45 2,6 C 6,0 km/h (2 Bft)
01.01.2016 15:00 4,7 C 5,5 C 85 % 1025,5 hPa 0,0 mm 4,4 km/h (1 Bft) O-NO 67 2,4 C 4,9 km/h (1 Bft)
01.01.2016 15:05 4,7 C 5,3 C 84 % 1025,5 hPa 0,0 mm 4,9 km/h (1 Bft) O-NO 67 2,2 C 4,9 km/h (1 Bft)
01.01.2016 15:10 4,7 C 5,4 C 81 % 1025,5 hPa 0,0 mm 2,8 km/h (1 Bft) O-SO 112 1,7 C 0,0 km/h (0 Bft)
01.01.2016 15:15 4,7 C 5,5 C 81 % 1025,3 hPa 0,0 mm 1,6 km/h (1 Bft) O-NO 67 1,7 C 0,0 km/h (0 Bft)
01.01.2016 15:20 4,7 C 5,4 C 85 % 1025,3 hPa 0,0 mm 2,3 km/h (1 Bft) O-NO 67 2,4 C 2,6 km/h (1 Bft)
01.01.2016 15:25 4,7 C 5,3 C 85 % 1025,3 hPa 0,0 mm 2,3 km/h (1 Bft) NO 45 2,4 C 3,6 km/h (1 Bft)
01.01.2016 15:30 4,6 C 5,1 C 86 % 1025,3 hPa 0,0 mm 2,3 km/h (1 Bft) O-NO 67 2,5 C 3,9 km/h (1 Bft)
01.01.2016 15:35 4,5 C 5,0 C 86 % 1025,2 hPa 0,0 mm 3,4 km/h (1 Bft) O-NO 67 2,4 C 5,7 km/h (1 Bft)
01.01.2016 15:40 4,4 C 4,8 C 86 % 1025,2 hPa 0,0 mm 3,1 km/h (1 Bft) O-NO 67 2,3 C 0,0 km/h (0 Bft)
01.01.2016 15:45 4,3 C 4,6 C 86 % 1025,2 hPa 0,0 mm 1,8 km/h (1 Bft) O-NO 67 2,2 C 0,0 km/h (0 Bft)
01.01.2016 15:50 4,2 C 4,6 C 87 % 1025,2 hPa 0,0 mm 0,8 km/h (0 Bft) O-NO 67 2,2 C 4,7 km/h (1 Bft)
01.01.2016 15:55 4,1 C 4,3 C 87 % 1024,8 hPa 0,0 mm 0,8 km/h (0 Bft) O-NO 67 2,1 C 2,6 km/h (1 Bft)
01.01.2016 16:00 3,6 C 3,7 C 87 % 1024,8 hPa 0,0 mm 0,8 km/h (0 Bft) O-NO 67 1,6 C 0,0 km/h (0 Bft)
01.01.2016 16:01 3,6 C 3,7 C 87 % 1024,8 hPa 0,0 mm 0,8 km/h (0 Bft) O-NO 67 1,6 C 0,0 km/h (0 Bft)
01.01.2016 16:05 3,3 C 3,2 C 87 % 1024,8 hPa 0,0 mm 1,3 km/h (1 Bft) O-SO 112 1,3 C 2,6 km/h (1 Bft)
01.01.2016 16:10 3,2 C 3,0 C 88 % 1024,8 hPa 0,0 mm 2,3 km/h (1 Bft) O 90 1,4 C 2,6 km/h (1 Bft)
01.01.2016 16:15 2,9 C 2,7 C 89 % 1024,4 hPa 0,0 mm 2,8 km/h (1 Bft) O-SO 112 1,3 C 0,0 km/h (0 Bft)
01.01.2016 16:20 2,7 C 2,5 C 89 % 1024,4 hPa 0,0 mm 1,3 km/h (1 Bft) O 90 1,1 C 0,0 km/h (0 Bft)
01.01.2016 16:25 2,5 C 2,3 C 89 % 1024,4 hPa 0,0 mm 0,5 km/h (0 Bft) O-NO 67 0,9 C 0,0 km/h (0 Bft)
01.01.2016 16:30 2,4 C 2,1 C 89 % 1024,4 hPa 0,0 mm 0,5 km/h (0 Bft) O-SO 112 0,8 C 0,0 km/h (0 Bft)
01.01.2016 16:35 2,3 C 2,0 C 89 % 1024,4 hPa 0,0 mm 0,5 km/h (0 Bft) O-SO 112 0,7 C 0,0 km/h (0 Bft)
01.01.2016 16:40 2,2 C 1,8 C 89 % 1024,4 hPa 0,0 mm 0,0 km/h (0 Bft) O-SO 112 0,6 C 0,0 km/h (0 Bft)
01.01.2016 16:45 1,9 C 1,6 C 90 % 1024,4 hPa 0,0 mm 0,0 km/h (0 Bft) S-SO 157 0,4 C 0,0 km/h (0 Bft)
01.01.2016 16:50 1,9 C 1,5 C 90 % 1024,4 hPa 0,0 mm 0,0 km/h (0 Bft) O-SO 112 0,4 C 0,0 km/h (0 Bft)
01.01.2016 16:55 1,7 C 1,4 C 90 % 1024,2 hPa 0,0 mm 0,0 km/h (0 Bft) O 90 0,2 C 0,0 km/h (0 Bft)
01.01.2016 17:00 1,8 C 1,3 C 90 % 1024,2 hPa 0,0 mm 0,0 km/h (0 Bft) O-SO 112 0,3 C 0,0 km/h (0 Bft)
01.01.2016 17:05 1,6 C 1,2 C 90 % 1024,2 hPa 0,0 mm 0,0 km/h (0 Bft) O-SO 112 0,1 C 0,0 km/h (0 Bft)
01.01.2016 17:10 1,6 C 1,1 C 91 % 1024,2 hPa 0,0 mm 0,0 km/h (0 Bft) SO 135 0,3 C 0,0 km/h (0 Bft)
01.01.2016 17:15 1,5 C 1,0 C 91 % 1024,1 hPa 0,0 mm 0,0 km/h (0 Bft) O-SO 112 0,2 C 0,0 km/h (0 Bft)
01.01.2016 17:20 1,1 C 0,8 C 85 % 1024,1 hPa 0,0 mm 0,0 km/h (0 Bft) O-SO 112 -1,1 C 0,0 km/h (0 Bft)
01.01.2016 17:25 1,2 C 0,9 C 86 % 1024,1 hPa 0,0 mm 0,0 km/h (0 Bft) SO 135 -0,9 C 0,0 km/h (0 Bft)
01.01.2016 17:30 1,5 C 1,0 C 91 % 1024,1 hPa 0,0 mm 0,0 km/h (0 Bft) O 90 0,2 C 0,0 km/h (0 Bft)
01.01.2016 17:35 1,4 C 1,0 C 91 % 1023,8 hPa 0,0 mm 0,0 km/h (0 Bft) SO 135 0,1 C 0,0 km/h (0 Bft)
01.01.2016 17:40 1,6 C 1,4 C 86 % 1023,8 hPa 0,0 mm 0,0 km/h (0 Bft) SO 135 -0,5 C 0,0 km/h (0 Bft)
01.01.2016 17:45 1,7 C 1,6 C 86 % 1023,8 hPa 0,0 mm 0,3 km/h (0 Bft) O-SO 112 -0,4 C 0,0 km/h (0 Bft)
01.01.2016 17:50 2,0 C 1,9 C 86 % 1023,8 hPa 0,0 mm 1,0 km/h (0 Bft) N-NO 22 -0,1 C 5,2 km/h (1 Bft)
01.01.2016 17:55 2,2 C 2,1 C 86 % 1023,7 hPa 0,0 mm 2,3 km/h (1 Bft) NO 45 0,1 C 6,7 km/h (2 Bft)
01.01.2016 18:00 2,4 C 2,3 C 93 % 1023,7 hPa 0,0 mm 3,6 km/h (1 Bft) O-SO 112 1,4 C 2,6 km/h (1 Bft)
01.01.2016 18:05 2,5 C 2,4 C 93 % 1023,7 hPa 0,0 mm 4,7 km/h (1 Bft) O-NO 67 1,5 C 11,7 km/h (2 Bft)
01.01.2016 18:10 2,5 C 2,3 C 93 % 1023,7 hPa 0,0 mm 5,4 km/h (1 Bft) O-NO 67 1,5 C 0,0 km/h (0 Bft)
01.01.2016 18:15 2,5 C 2,2 C 93 % 1023,8 hPa 0,0 mm 6,5 km/h (2 Bft) O-NO 67 1,5 C 6,5 km/h (2 Bft)
01.01.2016 18:20 2,5 C 2,3 C 93 % 1023,8 hPa 0,0 mm 6,0 km/h (2 Bft) O-SO 112 1,5 C 14,2 km/h (3 Bft)
01.01.2016 18:25 2,5 C 2,5 C 94 % 1023,8 hPa 0,0 mm 4,1 km/h (1 Bft) SO 135 1,6 C 0,0 km/h (0 Bft)
01.01.2016 18:30 2,5 C 2,5 C 94 % 1023,8 hPa 0,0 mm 2,6 km/h (1 Bft) N-NO 22 1,6 C 7,3 km/h (2 Bft)
01.01.2016 18:35 2,5 C 2,5 C 94 % 1023,6 hPa 0,0 mm 3,9 km/h (1 Bft) O 90 1,6 C 6,5 km/h (2 Bft)
01.01.2016 18:40 2,5 C 2,2 C 94 % 1023,6 hPa 0,0 mm 6,0 km/h (2 Bft) O-NO 67 1,6 C 18,1 km/h (3 Bft)
01.01.2016 18:45 2,4 C 2,1 C 94 % 1023,6 hPa 0,0 mm 6,0 km/h (2 Bft) O-NO 67 1,5 C 7,5 km/h (2 Bft)
01.01.2016 18:50 2,4 C 2,1 C 94 % 1023,6 hPa 0,0 mm 6,5 km/h (2 Bft) O-SO 112 1,5 C 8,0 km/h (2 Bft)
01.01.2016 18:55 2,4 C 2,1 C 94 % 1023,5 hPa 0,0 mm 6,0 km/h (2 Bft) N-NO 22 1,5 C 12,2 km/h (2 Bft)
01.01.2016 19:00 2,4 C 2,3 C 94 % 1023,5 hPa 0,0 mm 4,7 km/h (1 Bft) N-NO 22 1,5 C 3,1 km/h (1 Bft)
01.01.2016 19:05 2,4 C 2,3 C 94 % 1023,5 hPa 0,0 mm 4,1 km/h (1 Bft) O-NO 67 1,5 C 5,7 km/h (1 Bft)
01.01.2016 19:10 2,4 C 2,2 C 94 % 1023,5 hPa 0,0 mm 5,7 km/h (1 Bft) O-SO 112 1,5 C 9,6 km/h (2 Bft)
01.01.2016 19:15 2,4 C 2,0 C 95 % 1023,5 hPa 0,0 mm 7,3 km/h (2 Bft) O-NO 67 1,7 C 7,3 km/h (2 Bft)
01.01.2016 19:20 2,4 C 2,1 C 95 % 1023,5 hPa 0,0 mm 6,0 km/h (2 Bft) O-NO 67 1,7 C 7,0 km/h (2 Bft)
01.01.2016 19:25 2,4 C 2,1 C 95 % 1023,5 hPa 0,0 mm 5,4 km/h (1 Bft) O-NO 67 1,7 C 12,4 km/h (3 Bft)
01.01.2016 19:30 2,3 C 1,9 C 95 % 1023,5 hPa 0,0 mm 6,7 km/h (2 Bft) O-NO 67 1,6 C 14,2 km/h (3 Bft)
01.01.2016 19:35 2,3 C 1,8 C 95 % 1023,3 hPa 0,0 mm 8,0 km/h (2 Bft) NO 45 1,6 C 9,6 km/h (2 Bft)
01.01.2016 19:40 2,3 C 1,9 C 95 % 1023,3 hPa 0,0 mm 7,0 km/h (2 Bft) NO 45 1,6 C 7,8 km/h (2 Bft)
01.01.2016 19:45 2,2 C 2,0 C 95 % 1023,3 hPa 0,0 mm 5,4 km/h (1 Bft) O 90 1,5 C 7,0 km/h (2 Bft)
01.01.2016 19:50 2,2 C 2,0 C 95 % 1023,3 hPa 0,0 mm 4,9 km/h (1 Bft) O-NO 67 1,5 C 3,4 km/h (1 Bft)
01.01.2016 19:55 2,2 C 2,0 C 95 % 1023,0 hPa 0,0 mm 4,7 km/h (1 Bft) O-NO 67 1,5 C 12,2 km/h (2 Bft)
01.01.2016 20:00 2,1 C 1,9 C 95 % 1023,0 hPa 0,0 mm 4,9 km/h (1 Bft) NO 45 1,4 C 7,0 km/h (2 Bft)
01.01.2016 20:05 2,1 C 1,8 C 95 % 1023,0 hPa 0,0 mm 5,4 km/h (1 Bft) O 90 1,4 C 5,2 km/h (1 Bft)
01.01.2016 20:10 2,1 C 1,9 C 95 % 1023,0 hPa 0,0 mm 4,9 km/h (1 Bft) O 90 1,4 C 5,4 km/h (1 Bft)
01.01.2016 20:15 2,1 C 1,9 C 95 % 1022,5 hPa 0,0 mm 4,7 km/h (1 Bft) O-NO 67 1,4 C 5,4 km/h (1 Bft)
01.01.2016 20:20 2,1 C 1,9 C 95 % 1022,5 hPa 0,0 mm 4,4 km/h (1 Bft) O-NO 67 1,4 C 7,3 km/h (2 Bft)
01.01.2016 20:25 2,1 C 2,0 C 95 % 1022,5 hPa 0,0 mm 3,9 km/h (1 Bft) O-SO 112 1,4 C 9,3 km/h (2 Bft)
01.01.2016 20:30 2,1 C 1,9 C 95 % 1022,5 hPa 0,0 mm 4,4 km/h (1 Bft) O-NO 67 1,4 C 5,7 km/h (1 Bft)
01.01.2016 20:35 2,0 C 1,8 C 95 % 1022,2 hPa 0,0 mm 5,2 km/h (1 Bft) N-NO 22 1,3 C 4,4 km/h (1 Bft)
01.01.2016 20:40 2,0 C 1,8 C 95 % 1022,2 hPa 0,0 mm 4,9 km/h (1 Bft) SW 225 1,3 C 4,4 km/h (1 Bft)
01.01.2016 20:45 2,0 C 1,9 C 95 % 1022,2 hPa 0,0 mm 4,4 km/h (1 Bft) NO 45 1,3 C 8,8 km/h (2 Bft)
01.01.2016 20:50 2,0 C 1,9 C 95 % 1022,2 hPa 0,0 mm 3,6 km/h (1 Bft) O-SO 112 1,3 C 4,7 km/h (1 Bft)
01.01.2016 20:55 2,0 C 1,9 C 95 % 1022,0 hPa 0,0 mm 3,4 km/h (1 Bft) O-NO 67 1,3 C 3,9 km/h (1 Bft)
01.01.2016 21:00 2,0 C 1,9 C 95 % 1022,0 hPa 0,0 mm 3,6 km/h (1 Bft) NO 45 1,3 C 9,1 km/h (2 Bft)
01.01.2016 21:05 2,0 C 1,9 C 95 % 1022,0 hPa 0,0 mm 4,1 km/h (1 Bft) NO 45 1,3 C 6,5 km/h (2 Bft)
01.01.2016 21:10 1,9 C 1,8 C 95 % 1022,0 hPa 0,0 mm 3,1 km/h (1 Bft) O-NO 67 1,2 C 5,4 km/h (1 Bft)
01.01.2016 21:15 1,9 C 1,8 C 96 % 1021,7 hPa 0,0 mm 3,4 km/h (1 Bft) O-NO 67 1,3 C 6,7 km/h (2 Bft)
01.01.2016 21:20 1,9 C 1,8 C 96 % 1021,7 hPa 0,0 mm 3,6 km/h (1 Bft) O-NO 67 1,3 C 4,4 km/h (1 Bft)
01.01.2016 21:25 1,9 C 1,8 C 96 % 1021,7 hPa 0,0 mm 4,4 km/h (1 Bft) O-NO 67 1,3 C 8,0 km/h (2 Bft)
01.01.2016 21:30 1,9 C 1,7 C 96 % 1021,7 hPa 0,0 mm 4,9 km/h (1 Bft) O-SO 112 1,3 C 4,7 km/h (1 Bft)
01.01.2016 21:35 1,9 C 1,8 C 96 % 1021,5 hPa 0,0 mm 3,9 km/h (1 Bft) NO 45 1,3 C 3,9 km/h (1 Bft)
01.01.2016 21:39 1,9 C 1,8 C 96 % 1021,5 hPa 0,0 mm 3,4 km/h (1 Bft) O-NO 67 1,3 C 5,2 km/h (1 Bft)
01.01.2016 21:47 1,9 C 1,8 C 96 % 1021,5 hPa 0,0 mm 3,4 km/h (1 Bft) O-NO 67 1,3 C 5,2 km/h (1 Bft)
01.01.2016 21:50 1,8 C 1,7 C 96 % 1021,5 hPa 0,0 mm 3,6 km/h (1 Bft) O-NO 67 1,2 C 3,4 km/h (1 Bft)
01.01.2016 21:55 1,8 C 1,7 C 96 % 1021,3 hPa 0,0 mm 2,8 km/h (1 Bft) O-NO 67 1,2 C 7,0 km/h (2 Bft)
01.01.2016 22:00 1,8 C 1,7 C 96 % 1021,3 hPa 0,0 mm 2,1 km/h (1 Bft) N-NO 22 1,2 C 3,9 km/h (1 Bft)
01.01.2016 22:02 1,8 C 1,7 C 96 % 1021,3 hPa 0,0 mm 2,1 km/h (1 Bft) N-NO 22 1,2 C 3,9 km/h (1 Bft)
01.01.2016 22:05 1,8 C 1,7 C 96 % 1021,3 hPa 0,0 mm 2,3 km/h (1 Bft) N-NO 22 1,2 C 4,1 km/h (1 Bft)
01.01.2016 22:10 1,7 C 1,6 C 96 % 1021,3 hPa 0,0 mm 3,4 km/h (1 Bft) O 90 1,1 C 7,3 km/h (2 Bft)
01.01.2016 22:15 1,7 C 1,6 C 96 % 1021,0 hPa 0,0 mm 3,6 km/h (1 Bft) O-NO 67 1,1 C 3,9 km/h (1 Bft)
01.01.2016 22:20 1,7 C 1,6 C 96 % 1021,0 hPa 0,0 mm 2,6 km/h (1 Bft) O-NO 67 1,1 C 5,7 km/h (1 Bft)
01.01.2016 22:25 1,7 C 1,6 C 96 % 1021,0 hPa 0,0 mm 1,3 km/h (1 Bft) S-SO 157 1,1 C 2,8 km/h (1 Bft)
01.01.2016 22:30 1,7 C 1,6 C 96 % 1021,0 hPa 0,0 mm 0,8 km/h (0 Bft) NO 45 1,1 C 0,0 km/h (0 Bft)
01.01.2016 22:35 1,6 C 1,5 C 96 % 1020,6 hPa 0,0 mm 1,0 km/h (0 Bft) SW 225 1,0 C 0,0 km/h (0 Bft)
01.01.2016 22:40 1,5 C 1,5 C 89 % 1020,6 hPa 0,0 mm 1,3 km/h (1 Bft) NO 45 -0,1 C 7,3 km/h (2 Bft)
01.01.2016 22:45 1,5 C 1,5 C 89 % 1020,6 hPa 0,0 mm 2,6 km/h (1 Bft) NO 45 -0,1 C 3,6 km/h (1 Bft)
01.01.2016 22:50 1,5 C 1,4 C 96 % 1020,6 hPa 0,0 mm 3,4 km/h (1 Bft) O-NO 67 0,9 C 3,9 km/h (1 Bft)
01.01.2016 22:55 1,5 C 1,4 C 96 % 1020,3 hPa 0,0 mm 2,1 km/h (1 Bft) NO 45 0,9 C 0,0 km/h (0 Bft)
01.01.2016 23:00 1,5 C 1,4 C 96 % 1020,3 hPa 0,0 mm 2,3 km/h (1 Bft) O-SO 112 0,9 C 2,6 km/h (1 Bft)
01.01.2016 23:05 1,5 C 1,4 C 96 % 1020,3 hPa 0,0 mm 1,3 km/h (1 Bft) NO 45 0,9 C 0,0 km/h (0 Bft)
01.01.2016 23:10 1,5 C 1,4 C 96 % 1020,3 hPa 0,0 mm 0,5 km/h (0 Bft) O-NO 67 0,9 C 0,0 km/h (0 Bft)
01.01.2016 23:15 1,5 C 1,4 C 96 % 1020,1 hPa 0,0 mm 0,5 km/h (0 Bft) O-NO 67 0,9 C 0,0 km/h (0 Bft)
01.01.2016 23:20 1,5 C 1,4 C 96 % 1020,1 hPa 0,0 mm 0,0 km/h (0 Bft) O-NO 67 0,9 C 0,0 km/h (0 Bft)
01.01.2016 23:25 1,5 C 1,4 C 96 % 1020,1 hPa 0,0 mm 1,0 km/h (0 Bft) O-SO 112 0,9 C 3,4 km/h (1 Bft)
01.01.2016 23:30 1,4 C 1,3 C 96 % 1020,1 hPa 0,0 mm 2,1 km/h (1 Bft) N-NO 22 0,8 C 2,8 km/h (1 Bft)
01.01.2016 23:35 1,4 C 1,3 C 96 % 1020,1 hPa 0,0 mm 2,1 km/h (1 Bft) O-NO 67 0,8 C 2,8 km/h (1 Bft)
01.01.2016 23:40 1,4 C 1,3 C 96 % 1020,1 hPa 0,0 mm 1,8 km/h (1 Bft) O-NO 67 0,8 C 0,0 km/h (0 Bft)
01.01.2016 23:45 1,4 C 1,3 C 96 % 1020,1 hPa 0,0 mm 1,0 km/h (0 Bft) O-NO 67 0,8 C 2,6 km/h (1 Bft)
01.01.2016 23:50 1,4 C 1,3 C 96 % 1020,1 hPa 0,0 mm 0,3 km/h (0 Bft) N-NO 22 0,8 C 0,0 km/h (0 Bft)
01.01.2016 23:55 1,4 C 1,3 C 96 % 1019,8 hPa 0,0 mm 0,0 km/h (0 Bft) N-NO 22 0,8 C 0,0 km/h (0 Bft)
_ Min-Zeit 17:20 17:20 15:15 23:55 - 23:55 - - 17:20 23:55
Minimum _ 1,1 C 0,8 C 81 % 1019,8 hPa - 0,0 km/h (0 Bft) - - -1,1 C 0,0 km/h (0 Bft)
_ Max-Zeit 13:45 13:50 23:55 09:50 08:50 19:35 - - 11:10 18:40
Maximum _ 5,0 C 6,5 C 96 % 1027,7 hPa 0,7 mm 8,0 km/h
NO (2 Bft)
- - 3,9 C 18,1 km/h
O-NO (3 Bft)
Durchschnitt _ 3,2 C 3,3 C 92 % 1025,2 hPa #5,5 mm 2,4 km/h (1 Bft) O-NO - 2,1 C 3,3 km/h (1 Bft)